Location: Goc?aw
(53.4743°N, 14.6027°E)
Time: 02:06:18
(UTC+00:00)

Daily predictions for brighter satellites

Satellite Brightness Start Highest point End
(mag) Time Altitude Azimuth Time Altitude Azimuth Time Altitude Azimuth
Cosmos 1025 Rocket 3.8 00:01:26 15° SW 00:04:42 44° WNW 00:08:51 10° N
Cosmos 923 Rocket 4.4 00:01:54 10° NW 00:06:59 49° WSW 00:11:01 15° S
Cosmos 1937 Rocket 3.6 00:04:13 17° SSW 00:08:19 71° ESE 00:13:33 10° NNE
Cosmos 1844 Rocket 4.0 00:09:58 10° SSE 00:14:37 28° ESE 00:19:18 10° NE
SL-16 R/B 4.1 00:10:07 10° ESE 00:15:37 34° NE 00:21:08 10° N
Cosmos 1727 Rocket 4.4 00:11:12 10° N 00:17:32 66° ENE 00:23:50 10° SSE
Cosmos 1898 Rocket 3.5 00:13:33 15° SSW 00:17:52 78° WNW 00:23:04 10° NNE
GEOS 3 Rocket 3.7 00:12:46 10° NE 00:17:57 64° SE 00:22:16 14° SSW
Cosmos 1536 Rocket 4.3 00:17:51 12° SSE 00:21:45 48° E 00:26:00 10° NNE
MOZ.5/SAFIR/RUBIN 5/SL-8 3.7 00:20:45 10° SSE 00:25:19 87° WSW 00:29:59 10° NNW
SL-19 R/B 3.5 00:22:28 10° NNE 00:25:26 74° ESE 00:27:19 19° S
CZ-2D R/B 3.4 00:25:20 10° NNE 00:30:11 34° E 00:34:55 10° SSE
COBE Rocket 4.3 00:25:37 10° NNE 00:30:46 64° E 00:35:31 12° S
Cosmos 1606 3.3 00:29:32 10° NNW 00:32:52 38° W 00:35:21 16° SSW
ADEOS II 3.8 00:29:52 10° NE 00:34:15 26° E 00:38:36 10° SSE
Helios 1A Rocket 3.2 00:32:17 15° S 00:35:08 44° W 00:38:48 10° NNW
Cosmos 1869 3.9 00:33:29 10° NNW 00:36:54 36° W 00:39:31 15° SSW
Cosmos 1607 4.0 00:32:02 10° NW 00:38:29 76° SW 00:44:47 10° SSE
USA 234 3.7 00:32:33 10° E 00:39:03 67° N 00:45:33 10° WNW
SL-16 R/B 3.9 00:36:21 10° WNW 00:39:53 17° W 00:43:10 11° SW
Meteor 1-27 4.3 00:35:11 10° NNW 00:41:03 80° W 00:46:49 10° S
CZ-2C R/B 2.9 00:35:47 10° SSE 00:41:06 75° ENE 00:46:35 10° NNW
Cosmos 2341 Rocket 4.2 00:36:54 13° SSW 00:42:24 63° WNW 00:48:37 10° N
CENTAUR R/B 3.2 00:37:26 10° WSW 00:43:33 60° NNW 00:51:13 10° NE
Cosmos 1437 Rocket 3.1 00:41:31 12° S 00:44:57 55° E 00:48:38 10° NNE
Cosmos 1603 3.8 00:40:12 10° NW 00:45:51 59° WSW 00:51:28 10° SSE
Cosmos 1461 2.9 00:43:01 11° SW 00:46:47 69° NW 00:50:38 10° NE
Cosmos 1680 Rocket 4.4 00:42:58 10° NW 00:47:33 32° WSW 00:51:38 12° SSW
Cosmos 2228 3.4 00:43:46 10° NNW 00:47:56 48° W 00:51:39 12° SSW
ASTEX 1 4.5 00:44:32 10° SE 00:49:07 43° ENE 00:53:43 10° N
Cosmos 1943 3.8 00:46:08 10° NW 00:51:14 37° WSW 00:56:20 10° S
Cosmos 2227 Rocket 3.9 00:49:19 10° W 00:54:12 29° NW 00:59:06 10° NNE
Cosmos 2082 4.3 00:48:43 10° SW 00:54:12 52° NW 00:59:43 10° NNE
Cosmos 1812 3.9 00:51:23 10° N 00:54:46 38° ENE 00:58:07 10° SE
Resurs 1-4 Rocket 2.6 00:52:27 10° NNE 00:57:40 56° ESE 01:02:51 10° S
NPP 3.9 00:53:02 10° NNE 00:58:27 71° ESE 01:03:50 10° S
Cosmos 1821 Rocket 4.0 00:56:51 10° S 01:02:56 86° W 01:09:11 10° N
Cosmos 724 4.3 00:58:05 10° NW 01:03:52 67° SW 01:09:38 10° SSE
USA 238 DEB 3.8 00:59:38 11° SSW 01:05:33 63° SE 01:12:20 10° NE
USA 238 3.8 00:59:40 11° SSW 01:05:36 62° SE 01:12:23 10° NE
H-2A R/B 4.4 01:04:31 10° NNW 01:06:49 14° NW 01:09:03 10° W
BlueWalker 3 1.9 01:07:14 10° W 01:10:55 56° SSW 01:14:35 10° ESE
Cosmos 2058 Rocket 3.9 01:06:53 10° N 01:11:14 51° ENE 01:15:31 10° SSE
Cosmos 1892 Rocket 4.4 01:07:31 10° SSE 01:11:45 47° E 01:16:02 10° NNE
Cosmos 2218 Rocket 4.5 01:07:06 10° SSW 01:13:03 49° WNW 01:19:03 10° N
ATLAS CENTAUR R/B 4.1 01:13:40 10° NNW 01:16:43 22° NNE 01:19:52 10° ENE
Cosmos 1048 Rocket 4.2 01:15:41 10° NNW 01:20:46 53° WSW 01:25:53 10° S
Cosmos 1833 Rocket 3.7 01:17:24 10° NNW 01:22:57 53° NE 01:28:28 10° SE
Iridium 4 Rocket 4.2 01:20:58 10° N 01:25:20 49° E 01:30:03 10° SSE
CZ-4C R/B 4.2 01:21:38 10° WNW 01:26:45 34° N 01:33:07 10° ENE
Cosmos 921 Rocket 3.8 01:23:22 10° NW 01:27:11 33° WSW 01:30:55 10° SSW
Cosmos 1544 4.4 01:29:09 10° SSE 01:31:16 22° E 01:33:24 10° NE
IDEFIX/ARIANE 42P 2.8 01:26:51 10° N 01:32:03 65° WNW 01:37:13 10° SSW
Cosmos 1934 Rocket 4.3 01:28:42 10° S 01:35:03 77° E 01:41:27 10° NNE
Cosmos 2123 Rocket 4.0 01:29:45 10° NNW 01:35:57 76° W 01:42:09 10° S
Cosmos 1125 Rocket 4.0 01:31:34 10° S 01:36:46 61° ESE 01:42:00 10° NNE
MSX 4.0 01:31:31 10° NNE 01:37:15 72° WNW 01:42:57 10° SSW
Cosmos-2242 4.3 01:33:38 10° N 01:37:47 43° ENE 01:41:52 10° SE
Cosmos 1844 3.8 01:33:18 10° SSW 01:39:07 88° ESE 01:44:58 10° NNE
COSMOS 2441 4.4 01:35:15 10° NNE 01:40:05 87° WNW 01:44:55 10° SSW
Cosmos 2263 Rocket 3.7 01:35:51 10° W 01:40:41 29° NW 01:45:34 10° NNE
NOSS 3-2 (A) 4.4 01:35:49 10° W 01:41:19 46° NNW 01:47:58 10° NE
